User: anonymous   Login
Location: Unspecified
(0.0000°N, 0.0000°E)
Time: 22:34:39
(UTC+00:00)
Language:

NAVSTAR 65 (USA 213) - Orbit

View from above orbital plane
View from above orbital plane
View from above satellite
View from above satellite

Ground track
Ground track

The orbit data is extracted from the following two-line orbital elements,

1 36585U 10022A   16178.39173230 -.00000050  00000-0  00000+0 0  9998
2 36585  56.0672 354.7183 0054652  43.4238 355.5553  2.00556708 44521
Epoch (UTC): 26 June 2016 09:24:05
Eccentricity: 0.0054652
inclination: 56.0672°
perigee height: 20037 km
apogee height: 20328 km
right ascension of ascending node: 354.7183°
argument of perigee: 43.4238°
revolutions per day: 2.00556708
mean anomaly at epoch: 355.5553°
orbit number at epoch: 4452

The dashed part of the orbit path shows where the satellite is in the earth's shadow,  

DLR